THORAD AGENA D DEB, 42493

Orbit data source: Space-Track

THORAD AGENA D DEB, 42493 is space debris in SSO originally from a launch on Wed, 08 Apr 1970 UTC launched from the Air Force Western Test Range (AFWTR). Debris objects in space refer to the collection of defunct objects orbiting the Earth. Examples of debris include non-operational satellites, rocket bodies, and fragments generated from explosions, collisions, or faulty payload assembly.

Loading next visibility...
THORAD AGENA D DEB details
Identifier
42493, 1970-025QX
Orbit
SSO
Last TLE update6 months ago
Origin
Flag of USNASA LeRC (US)
ManufacturerUnknown
MissionSpacecraft
Bus & MotorUnknown
MassUnknown
Launch date (UTC)
1970-04-08 (55 years ago)
Launch vehicleUnknown
Launch site
Air Force Western Test Range (AFWTR)
Object type
Payload
Rocket body
Debris
Shape & HBRUnknown
Radar Cross SectionSmall (<0.1 m²)

Expand to show TLE details & history

TLE from 6 months ago
0 THORAD AGENA D DEB
1 42493U 70025QX  24178.37621620  .00070292  00000-0  60088-2 0  9999
2 42493  99.4603   8.5287 0007605 349.5958 131.2546 14.97280019560572
Epoch: 2024-06-26T09:01Z
Definitive object data (Epoch: 2024-06-26T09:01:45.079Z)
Latitude57.9096°
Longitude153.43214°
Altitude588.515 km
Speed7.57 km/s
True Right ascension13h 35m 24s
True Declination57° 45' 03"
Sunlit
Object was in daylight at TLE epoch
Visualization TLE readout
Latitude-12.77913°
Longitude1.82441°
Altitude458.64 km
Speed7.637 km/s
Apparent Right ascension02h 53m 50s
Apparent Declination-26° 05' 30"
Sunlit
Object is in daylight
Visualization observer readout
Local Sidereal Time14:05:50
Azimuth320.48° NNW
Elevation-72.936°
Doppler factor1
Orbital elements
Apogee altitude577.686 km
Perigee altitude567.114 km
Semi-major axis6,950.537 km
Eccentricity0.0007605
Inclination99.4603°
RAAN8.5287°
Arg. of periapsis349.5958°
True anomaly131.32007°
Mean anomaly131.2546°
Eccentric anomaly131.28734°
Mean motion3.74555 °/min
BSTAR0.0060088
Orbital period96.11 mins
Loading maneuver chart data...

THORAD AGENA D DEB Visibility forecast

Observer location: undefined°, undefined

Span
Click to sort rows by Start time (UTC) header in descending order
Start Az.
Max El. time (UTC)
Max El. Az.
Max El.
End time (UTC)
End Az.
6 mins2024-12-26 15:34:56.906Z158.81° S2024-12-26 15:37:56.906Z113.403° SE43.253°2024-12-26 15:40:56.906Z349.936° N
4 mins2024-12-27 04:31:56.906Z36.389° NE2024-12-27 04:33:56.906Z131.537° SE37.168°2024-12-27 04:35:56.906Z176.658° S
|